sat.trackr.live / text

‹ back to catalog

STARLINK-35148

NORAD 65844 · 2025-221X

PAYLOAD ACTIVE UNKNOWN

§ Identity

Operator
Country
US
Launch date
2025-09-29
Launch site
AFWTR
Launch vehicle
Mass (kg)
RCS (m²)

Purposes: comms

External: N2YO · Heavens-Above · Gunter

§ Orbital elements

Epoch: 2026-05-25T03:08:53.355840Z

Period
93.85 min
Inclination
53.1588°
Eccentricity
0.0001168
Mean motion
15.34403410 rev/d
Perigee alt
461.9 km
Apogee alt
463.5 km
Semi-major
6,840.8 km
B*
7.2074e-4
RAAN
92.8017°
Arg perigee
85.7888°
Mean anomaly
274.3248°
Rev number
3,644

§ Raw data

STARLINK-351481 65844U 25221X   26145.13117310  .00024056  00000+0  72074-3 0  99932 65844  53.1588  92.8017 0001168  85.7888 274.3248 15.34403410 36448

JSON: /api/v1/satellites/65844 · /tle

For live sub-satellite position, see the globe view (requires WebGL).

§ Visibility from observer

Set your observer location to see the next 7 days of passes ≥ 10°. The values pass through the URL so the page stays shareable.

No JS? Fill the form by hand. The geolocation button needs JavaScript.